TimeAKDT,TemperatureF,Dew PointF,Humidity,Sea Level PressureIn,VisibilityMPH,Wind Direction,Wind SpeedMPH,Gust SpeedMPH,PrecipitationIn,Events,Conditions,WindDirDegrees,DateUTC
12:56 AM,31.1,27.1,85,30.38,10.0,SW,17.3,-,N/A,,Clear,220,2012-10-26 08:56:00
1:56 AM,31.1,27.1,85,30.38,10.0,SSW,16.1,-,N/A,,Clear,210,2012-10-26 09:56:00
2:56 AM,31.1,27.1,85,30.39,10.0,SW,15.0,-,N/A,,Overcast,220,2012-10-26 10:56:00
3:56 AM,30.0,27.1,89,30.39,10.0,SSW,8.1,-,N/A,,Overcast,200,2012-10-26 11:56:00
4:56 AM,30.0,26.1,85,30.38,10.0,SSW,10.4,-,N/A,,Mostly Cloudy,200,2012-10-26 12:56:00
5:56 AM,30.0,25.2,82,30.38,10.0,SW,10.4,-,N/A,,Partly Cloudy,220,2012-10-26 13:56:00
6:56 AM,30.0,25.2,82,30.38,10.0,SSW,11.5,-,N/A,,Partly Cloudy,210,2012-10-26 14:56:00
7:56 AM,31.1,26.1,82,30.38,10.0,SW,10.4,-,N/A,,Overcast,230,2012-10-26 15:56:00
8:56 AM,29.1,26.1,88,30.37,10.0,South,3.5,-,N/A,,Overcast,180,2012-10-26 16:56:00
9:56 AM,29.1,26.1,88,30.37,10.0,South,6.9,-,N/A,,Overcast,190,2012-10-26 17:56:00
10:56 AM,31.1,25.2,79,30.38,10.0,SSW,12.7,-,N/A,,Mostly Cloudy,210,2012-10-26 18:56:00
11:56 AM,30.0,24.1,79,30.38,10.0,SSW,12.7,-,N/A,,Partly Cloudy,210,2012-10-26 19:56:00
12:56 PM,30.0,25.2,82,30.38,10.0,SSW,11.5,-,N/A,,Partly Cloudy,210,2012-10-26 20:56:00
1:56 PM,30.0,24.1,79,30.38,10.0,SSW,12.7,-,N/A,,Partly Cloudy,210,2012-10-26 21:56:00
2:56 PM,30.0,25.2,82,30.37,10.0,SSW,13.8,-,N/A,,Partly Cloudy,200,2012-10-26 22:56:00
3:56 PM,30.0,24.1,79,30.38,10.0,SSW,16.1,-,N/A,,Clear,210,2012-10-26 23:56:00
4:56 PM,30.0,25.2,82,30.36,10.0,SSW,13.8,-,N/A,,Scattered Clouds,210,2012-10-27 00:56:00
5:10 PM,30.2,24.8,80,30.35,10.0,SSW,15.0,-,N/A,,Mostly Cloudy,210,2012-10-27 01:10:00
5:32 PM,30.2,26.6,86,30.34,10.0,SSW,10.4,-,N/A,,Overcast,210,2012-10-27 01:32:00
5:56 PM,30.0,26.1,85,30.35,10.0,SSW,10.4,-,N/A,,Overcast,200,2012-10-27 01:56:00
6:56 PM,30.0,26.1,85,30.35,10.0,SSW,12.7,-,N/A,,Overcast,210,2012-10-27 02:56:00
7:56 PM,30.0,26.1,85,30.35,10.0,SSW,13.8,-,N/A,,Overcast,210,2012-10-27 03:56:00
8:46 PM,30.2,26.6,86,30.32,10.0,SSW,11.5,-,N/A,,Overcast,200,2012-10-27 04:46:00
8:56 PM,30.0,27.1,89,30.34,10.0,SSW,9.2,-,N/A,,Overcast,200,2012-10-27 04:56:00
9:56 PM,30.2,26.6,86,30.32,10.0,SW,16.1,-,N/A,,Overcast,220,2012-10-27 05:56:00
10:56 PM,31.1,27.1,85,30.33,10.0,SW,12.7,-,N/A,,Overcast,220,2012-10-27 06:56:00
11:56 PM,31.1,27.1,85,30.32,10.0,SW,16.1,-,N/A,,Overcast,220,2012-10-27 07:56:00